Tracking 28126 objects as of 1-Oct-2023
HD Live streaming from Space Station
objects crossing your sky now

SL-16 DEB

Track SL-16 DEB now!
10-day predictions


NORAD ID: 22544
Int'l Code: 1992-093HE
Perigee: 674.8 km
Apogee: 819.2 km
Inclination: 71.2 °
Period: 99.6 minutes
Semi major axis: 7117 km
RCS: 0.0261 m2 (small)
Launch date: December 25, 1992
Source: Commonwealth of Independent States (former USSR) (CIS)
Launch site: TYURATAM MISSILE AND SPACE COMPLEX (TTMTR)

Note: This is SATELLITE DEBRIS
Your satellite tracking list
Your tracking list is empty




NASA's NSSDC Master Catalog

Two Line Element Set (TLE):
1 22544U 92093HE  23273.17687074  .00014920  00000-0  39605-2 0  9998
2 22544  71.2397 310.5786 0101481  55.2687   2.5502 14.45661628572074
Source of the keplerian elements: AFSPC